User: anonymous   Login
Location: Voyageurs National Park
(48.5020°N, 92.9292°W)
Time: 03:34:28
(UTC-05:00)
Language:

Terra - Orbit

View from above orbital plane
View from above orbital plane
View from above satellite
View from above satellite

Ground track
Ground track

The orbit data is extracted from the following two-line orbital elements,

1 25994U 99068A   16181.79345787 -.00000049  00000-0 -74818-6 0  9997
2 25994  98.2077 255.9148 0001496  80.3514 279.7838 14.57111273879357
Epoch (UTC): 29 June 2016 19:02:34
Eccentricity: 0.0001496
inclination: 98.2077°
perigee height: 701 km
apogee height: 703 km
right ascension of ascending node: 255.9148°
argument of perigee: 80.3514°
revolutions per day: 14.57111273
mean anomaly at epoch: 279.7838°
orbit number at epoch: 87935

The dashed part of the orbit path shows where the satellite is in the earth's shadow,  

DLR